sat.trackr.live / text

‹ back to catalog

STARLINK-36269

NORAD 67472 · 2026-008AD

PAYLOAD ACTIVE UNKNOWN

§ Identity

Operator
Country
US
Launch date
2026-01-14
Launch site
AFETR
Launch vehicle
Mass (kg)
RCS (m²)

Purposes: comms

External: N2YO · Heavens-Above · Gunter

§ Orbital elements

Epoch: 2026-05-25T00:29:56.503104Z

Period
94.26 min
Inclination
43.0008°
Eccentricity
0.0000845
Mean motion
15.27611803 rev/d
Perigee alt
482.4 km
Apogee alt
483.5 km
Semi-major
6,861.1 km
B*
1.0378e-3
RAAN
134.3473°
Arg perigee
264.2006°
Mean anomaly
95.8750°
Rev number
2,124

§ Raw data

STARLINK-362691 67472U 26008AD  26145.02079286  .00028434  00000+0  10378-2 0  99952 67472  43.0008 134.3473 0000845 264.2006  95.8750 15.27611803 21242

JSON: /api/v1/satellites/67472 · /tle

For live sub-satellite position, see the globe view (requires WebGL).

§ Visibility from observer

Set your observer location to see the next 7 days of passes ≥ 10°. The values pass through the URL so the page stays shareable.

No JS? Fill the form by hand. The geolocation button needs JavaScript.